Theta_e
336 334 334 336 338 338 337 335 335 335 337 334 331 334 336 332 329 329 332 331 329 329 329 330 330 332 333 335 335 334 334 334 335 336 335 334 333 331 331 330 330 329 328 326 321 318 318 319 319 319 317 315 312 306 302 299 302 305 303 301 302 303 305 308 309 311 311 310 310 309 309 310 310 309 310 312 312 313 313 313 313 313 313 314 313
337 335 334 336 337 337 337 335 336 336 337 336 331 334 337 334 331 330 331 331 329 329 329 330 332 332 333 335 334 334 334 333 334 335 334 334 332 329 327 326 325 324 324 323 321 320 322 322 322 319 316 314 312 307 302 300 301 304 304 303 305 306 309 310 311 312 312 311 311 312 312 313 313 312 312 312 312 312 313 313 313 312 312 313 313
338 336 334 336 336 336 337 336 337 337 337 336 332 334 336 334 333 331 332 330 327 329 331 333 333 333 334 336 335 334 334 333 333 334 333 332 330 326 325 323 321 320 319 320 322 322 322 322 321 319 316 314 312 306 300 299 301 302 303 305 308 310 312 313 313 313 313 313 313 313 313 313 313 313 313 313 313 312 312 313 312 312 312 313 312
338 337 335 337 337 337 338 338 338 337 338 337 334 336 335 334 333 331 331 329 329 332 332 333 333 334 336 337 336 335 334 333 333 333 332 331 329 327 325 322 321 319 316 318 322 322 321 321 320 319 317 316 314 309 305 303 302 302 302 305 309 312 314 314 314 314 314 314 314 314 313 313 312 311 312 312 313 313 313 313 312 311 312 312 312
339 338 338 338 338 338 338 339 338 337 339 336 335 337 336 335 333 332 331 329 334 335 333 334 334 335 336 336 336 336 335 333 332 332 332 330 329 328 326 324 321 315 311 316 322 322 321 321 320 320 319 319 318 316 313 312 310 309 307 308 310 313 314 314 314 314 314 313 314 314 314 313 311 310 310 311 311 311 312 312 312 311 311 312 312
339 339 339 339 339 339 338 339 338 338 337 335 335 337 336 335 334 333 333 333 336 337 335 336 336 336 336 336 335 335 335 333 332 331 331 330 329 328 326 325 320 314 310 311 318 322 321 321 321 321 320 319 319 318 317 317 316 314 313 312 312 313 313 313 313 313 314 313 312 312 313 312 311 310 309 309 310 310 310 311 311 311 311 311 311
339 339 339 339 339 338 337 337 337 336 334 334 337 336 334 334 335 334 334 335 335 336 337 337 337 336 335 335 335 333 333 333 332 331 330 330 330 329 327 326 322 320 318 312 313 318 320 321 320 318 318 318 318 317 317 317 316 315 314 313 312 312 312 312 312 312 314 314 312 311 312 312 311 310 309 308 308 309 310 310 310 310 310 311 311
340 339 339 338 337 337 336 335 335 335 333 334 336 335 334 333 335 334 334 336 336 336 338 337 337 336 335 335 333 333 332 332 332 331 330 329 329 328 326 326 324 323 322 318 316 316 319 320 317 315 317 318 318 317 316 316 315 314 313 312 312 312 312 311 311 312 313 313 312 311 311 311 311 310 310 308 308 309 309 309 309 310 311 311 311
340 338 338 338 337 335 336 335 335 335 334 335 335 335 337 336 336 336 334 338 338 336 337 337 337 335 334 334 332 332 332 332 332 330 328 326 326 326 324 323 323 323 322 321 320 316 316 316 315 315 316 317 317 317 316 316 315 314 312 311 311 312 311 311 311 312 312 312 312 311 310 310 309 310 310 308 308 309 309 309 309 310 311 311 311
339 337 337 340 339 337 338 338 338 338 337 339 338 338 341 339 337 338 337 339 338 336 337 337 337 336 334 333 332 332 332 331 332 330 328 325 324 324 323 322 322 322 322 322 321 319 316 313 313 314 311 310 312 313 315 315 314 314 313 311 311 312 312 311 311 312 311 310 311 311 310 308 309 309 308 308 308 309 309 309 310 311 311 310 310
338 337 339 342 342 341 341 342 342 342 340 341 342 341 342 339 337 339 338 339 337 336 337 337 336 336 334 333 333 332 332 332 332 330 327 325 324 322 322 321 318 317 320 322 321 320 318 312 308 307 305 303 305 305 308 309 310 312 312 312 312 311 312 311 311 311 311 310 310 309 308 308 308 308 308 308 309 309 309 310 311 310 310 310 310
339 339 341 342 343 343 342 344 344 343 342 343 342 342 342 340 339 340 339 338 336 336 337 337 336 335 334 333 333 333 332 332 331 330 327 324 323 322 321 319 316 314 317 321 321 320 319 315 308 307 307 303 300 299 300 302 303 305 307 309 308 308 310 311 310 310 310 309 308 308 307 307 308 307 307 309 309 309 310 311 310 310 310 310 309
340 340 341 342 343 343 343 345 344 342 343 343 343 342 342 341 338 339 339 337 336 336 337 337 335 334 334 333 332 332 332 332 332 331 327 324 323 322 321 318 316 315 315 316 320 320 319 318 313 312 313 308 304 301 300 302 302 301 302 303 302 303 308 309 308 308 308 307 306 306 307 307 307 307 308 309 309 310 311 310 309 309 309 309 309
340 340 340 342 342 342 343 345 344 342 343 343 343 343 342 341 337 336 338 337 336 336 336 336 335 334 333 333 332 331 331 331 332 331 328 325 323 322 321 318 316 315 313 313 316 318 318 317 315 314 313 311 309 307 305 306 306 304 304 304 303 304 305 305 304 305 306 305 305 306 307 307 307 307 308 309 309 310 310 309 308 309 308 308 309
340 339 340 341 342 343 342 343 343 343 343 343 343 343 343 342 338 336 337 336 336 336 336 335 334 334 333 333 332 332 332 331 331 331 330 326 323 323 321 319 317 315 313 313 313 314 314 314 314 314 313 312 310 309 308 308 308 307 306 306 307 307 305 302 302 301 301 303 305 305 306 307 307 307 308 308 309 310 309 308 308 308 308 308 309
339 339 340 341 342 343 342 342 343 343 343 343 344 343 342 341 340 338 337 336 336 336 336 335 334 333 333 334 333 333 333 332 331 332 330 328 325 323 322 320 319 316 314 313 311 311 311 311 312 312 312 311 310 309 309 309 309 308 307 307 309 309 306 302 300 299 298 301 304 305 306 307 307 307 307 308 309 309 308 307 307 307 307 308 309
339 339 339 341 342 343 343 342 342 343 343 343 343 343 342 340 339 339 338 336 335 335 336 336 335 334 334 335 335 335 336 333 332 332 330 328 326 324 323 321 320 316 314 313 311 311 310 311 311 311 311 310 309 310 310 310 310 308 307 309 311 310 306 302 300 297 296 299 302 305 306 306 306 306 307 308 309 309 307 306 306 306 307 308 308
339 339 338 340 342 343 343 342 342 343 343 342 342 343 343 341 340 340 339 337 334 334 335 336 336 335 333 334 335 336 337 333 333 333 330 328 328 325 323 322 320 317 314 314 313 312 311 311 311 310 311 309 308 308 309 310 310 309 309 311 311 310 306 302 299 296 295 296 299 303 306 306 306 306 307 309 308 308 306 305 306 306 307 308 307
339 339 339 339 341 343 343 343 343 344 343 342 342 343 344 342 341 340 340 338 335 334 335 336 336 336 334 334 334 334 334 332 333 334 332 330 328 326 324 322 321 319 316 315 314 313 311 311 311 310 311 310 308 308 310 311 311 311 311 311 310 308 305 302 298 296 295 296 297 301 304 304 305 306 307 308 308 306 305 304 305 306 306 307 306
339 339 339 339 340 342 342 342 343 343 343 342 342 343 344 343 341 341 340 339 337 335 336 336 336 336 336 335 335 335 334 332 333 333 334 333 329 326 325 322 321 320 318 316 315 314 312 311 311 311 311 311 309 309 310 311 311 311 311 310 309 308 305 301 297 295 296 296 296 297 300 301 302 305 308 307 307 305 302 302 303 305 306 305 303
338 338 339 339 339 341 342 342 343 343 342 341 341 342 344 343 341 341 340 339 337 337 336 336 336 336 336 335 335 335 334 333 332 331 333 335 332 328 325 323 322 321 319 318 317 315 313 312 312 311 312 312 311 311 310 310 311 311 310 311 310 308 304 299 296 296 296 296 295 295 297 296 299 305 307 306 305 302 299 300 302 304 304 302 299
338 338 339 339 340 340 342 343 342 342 342 341 341 342 343 342 341 341 340 338 337 337 336 335 335 335 335 335 335 335 334 333 332 330 330 332 332 329 325 324 324 322 320 319 318 317 314 313 312 312 312 311 311 311 311 310 312 312 311 311 310 307 303 298 297 296 296 296 295 295 295 294 297 304 306 304 301 297 296 298 300 301 299 296 296
339 339 339 339 341 341 341 342 343 342 342 341 341 342 342 342 341 341 340 339 338 337 335 335 335 336 335 335 334 334 334 332 331 330 329 330 332 331 326 323 323 323 322 320 319 318 316 313 313 312 312 312 312 312 311 311 311 311 312 311 309 307 303 299 297 297 295 296 295 295 295 294 296 301 302 299 296 295 295 296 297 297 295 294 295
340 340 340 340 341 341 341 342 343 342 342 342 341 341 342 342 341 341 340 339 338 336 335 335 336 336 335 334 333 333 333 331 330 330 330 329 331 332 329 326 325 324 322 321 320 319 317 314 313 313 312 311 312 312 311 311 311 311 311 310 309 308 303 299 299 297 295 295 295 295 295 294 295 296 296 295 294 294 294 294 294 294 294 295 296
342 341 341 340 340 341 342 342 342 342 342 341 341 341 342 342 341 341 340 339 338 337 336 336 336 336 335 334 333 333 332 331 330 330 330 330 330 332 331 329 329 326 323 321 320 319 317 315 314 313 312 311 311 311 311 311 311 311 311 309 309 307 302 300 301 300 297 295 295 295 295 295 295 295 295 295 294 294 294 294 294 294 295 296 296
342 342 341 341 341 341 342 342 342 342 341 341 341 341 341 341 341 341 340 339 338 337 337 337 337 336 335 334 333 333 332 332 331 330 330 330 331 332 331 331 330 325 322 321 320 319 318 315 314 313 312 312 311 311 311 311 311 311 309 309 308 305 302 303 304 303 299 295 295 295 295 295 295 295 295 295 294 294 294 294 295 295 296 296 297
343 343 342 341 342 342 341 342 342 342 341 342 341 341 341 341 340 340 339 339 338 338 337 337 337 335 334 334 333 332 332 332 332 331 330 330 331 331 331 332 333 328 323 321 320 318 317 316 314 313 312 312 311 311 311 310 310 310 309 309 306 303 304 305 306 304 299 296 296 296 296 296 295 295 295 295 295 295 295 295 295 296 297 297 298
343 343 342 342 342 342 341 342 342 342 342 341 341 341 341 340 340 339 339 339 339 337 337 337 335 334 333 333 332 332 332 332 332 332 331 331 331 330 330 330 332 332 328 326 323 319 317 315 314 313 312 311 311 310 310 310 310 309 309 307 304 304 306 307 306 304 300 298 298 297 296 296 296 296 295 295 296 296 296 296 296 297 297 298 298
344 343 343 342 342 341 342 342 342 343 343 342 341 341 341 340 339 338 338 338 337 336 335 335 334 334 334 334 333 333 333 332 332 332 331 331 330 330 330 328 329 331 331 331 328 322 317 315 313 312 311 311 311 310 310 310 310 309 308 306 303 305 307 307 306 304 301 301 301 298 296 297 296 296 296 296 297 297 297 297 297 298 298 298 298
344 343 343 342 342 342 341 342 342 343 343 342 342 341 341 340 339 338 337 337 336 335 335 335 334 333 333 334 334 333 333 332 332 332 331 331 330 328 329 328 328 328 328 329 327 322 317 315 313 312 311 310 310 310 310 310 309 308 307 305 303 304 306 307 306 304 303 303 303 299 297 296 296 297 297 298 298 298 298 298 298 298 298 299 299
344 344 344 343 342 342 342 342 341 343 343 342 342 342 341 339 339 338 337 336 336 335 334 334 333 332 332 332 333 332 332 332 332 331 330 329 329 328 328 328 326 324 323 324 324 322 318 314 312 311 310 310 310 310 310 309 308 307 306 305 303 303 306 307 306 305 304 304 303 301 298 297 298 298 298 299 299 299 299 299 299 299 299 299 299
345 344 343 343 343 343 342 342 342 343 343 343 342 342 340 339 338 338 337 336 335 334 333 332 332 332 332 332 332 331 331 331 330 331 330 330 329 328 327 326 324 322 321 320 321 321 317 313 311 311 310 309 310 309 309 308 307 306 306 305 303 304 306 307 306 305 305 305 304 302 299 298 299 299 299 299 299 299 299 299 299 299 300 300 300
345 344 343 343 343 343 342 342 342 342 343 343 342 341 340 339 338 337 337 336 335 334 333 332 331 331 332 332 332 331 330 330 330 329 329 328 327 326 325 323 322 320 319 319 319 319 316 313 311 310 309 309 309 308 308 307 307 306 306 305 304 305 306 306 305 306 305 305 304 303 301 299 299 299 299 299 299 299 299 299 300 300 301 301 302
345 345 344 343 343 343 342 341 341 342 343 343 342 341 340 339 338 337 336 335 334 333 332 331 331 330 330 331 331 330 329 330 329 327 327 326 325 324 324 321 319 317 317 318 318 318 316 314 311 309 308 309 309 308 307 307 307 306 306 306 304 305 306 306 305 305 305 305 304 304 303 301 299 299 299 299 300 300 300 301 301 302 302 302 302
345 344 343 343 343 343 342 341 341 341 342 342 341 340 339 339 338 337 336 335 334 333 332 331 331 331 330 329 328 329 328 328 327 326 326 324 322 322 321 319 317 316 316 317 316 316 317 314 311 310 309 309 308 308 307 306 306 306 306 305 305 305 306 306 305 305 305 305 305 305 304 303 302 302 302 302 302 302 302 302 302 303 302 302 302
345 344 343 343 343 342 342 341 341 341 341 341 341 340 339 339 337 336 335 334 333 333 331 331 331 330 330 329 328 328 327 327 326 325 324 322 320 319 318 317 315 314 315 315 313 315 317 315 312 311 310 309 308 306 306 306 305 306 305 304 304 305 305 305 306 306 305 305 305 305 305 305 304 304 303 303 303 303 303 304 304 303 303 302 302
346 344 343 343 343 342 342 341 340 340 340 341 341 340 339 338 337 336 335 334 333 333 332 331 330 330 329 328 327 327 327 325 325 323 321 319 317 316 315 314 313 312 313 313 313 315 317 315 313 312 310 309 307 304 305 306 305 305 305 305 305 305 305 305 306 306 306 306 306 306 306 306 305 304 304 304 304 304 304 304 305 304 303 303 302
345 344 343 343 343 342 342 341 340 339 339 340 341 340 339 337 337 336 335 333 333 333 332 330 330 329 328 327 326 325 325 324 323 321 319 316 315 313 311 311 310 311 312 313 313 315 315 314 313 310 309 308 307 305 304 305 305 304 305 306 306 306 305 306 306 307 306 306 307 307 307 306 305 305 305 305 305 304 305 305 305 304 304 303 302
345 344 343 343 343 342 342 341 340 339 339 340 340 340 338 337 336 335 334 333 333 332 331 330 329 328 327 325 324 324 324 322 321 320 318 315 313 311 310 310 310 312 314 314 313 312 312 312 311 309 308 308 307 306 306 305 305 305 304 304 305 306 306 307 307 307 307 307 307 307 307 306 306 306 306 305 305 305 305 305 305 305 304 304 303
345 344 344 344 343 343 342 341 340 339 338 339 340 339 338 337 336 335 334 333 332 331 331 330 329 328 326 324 323 323 322 321 320 319 316 314 312 311 310 310 311 314 315 313 310 309 309 310 310 309 308 308 306 307 307 306 305 304 303 303 305 306 306 305 306 307 307 307 307 307 307 307 306 306 306 305 305 305 304 304 304 305 304 304 303
345 344 344 344 344 343 342 342 341 340 338 338 339 339 338 336 336 335 334 333 331 330 330 330 328 327 325 323 322 322 321 320 319 317 315 313 311 311 310 310 312 314 313 310 307 307 308 309 309 309 308 308 306 306 307 307 305 305 306 306 307 307 306 305 306 307 307 307 307 307 307 306 306 306 306 306 306 305 304 304 304 304 304 303 303
345 345 344 344 344 343 343 342 341 340 339 338 339 338 338 336 335 335 334 332 331 330 330 329 327 325 323 321 321 321 320 320 318 316 314 313 311 310 309 310 312 312 309 307 307 308 308 308 309 309 308 308 308 307 307 307 306 307 308 307 307 307 306 307 307 307 307 307 307 306 305 305 305 306 307 307 306 304 304 304 303 303 303 303 302
345 345 344 344 344 344 343 342 341 340 339 339 338 338 338 336 335 335 333 332 331 330 329 328 326 324 322 320 320 319 319 318 316 315 314 312 311 311 310 310 311 309 306 306 308 308 307 308 308 308 308 308 308 308 307 307 307 308 307 306 306 306 306 307 308 308 307 307 306 305 304 305 307 307 308 307 306 304 303 303 303 303 302 302 302
345 345 345 345 344 344 343 342 342 341 340 339 338 338 338 336 335 334 332 331 330 329 329 327 325 323 321 319 319 318 318 317 315 314 313 312 311 310 310 310 309 307 305 306 308 307 307 308 308 307 308 308 308 308 308 307 308 308 307 307 306 306 306 307 308 308 307 306 305 305 305 307 307 307 307 306 305 303 303 302 303 302 302 302 302
346 345 345 344 344 344 344 343 342 342 341 340 338 338 338 336 335 333 331 330 328 328 328 326 324 322 320 319 318 318 317 315 314 313 312 311 310 310 311 310 308 306 306 307 309 308 307 307 307 307 308 307 307 308 308 307 307 308 308 307 306 307 308 308 308 307 306 305 304 305 307 307 306 306 306 305 304 303 303 302 302 302 302 302 302
346 345 345 344 344 344 344 343 342 342 341 340 338 337 337 336 334 332 330 329 328 328 328 325 323 321 319 318 317 317 315 313 313 312 311 311 309 308 309 308 307 306 307 308 309 309 308 307 308 308 308 307 308 309 308 307 307 307 307 306 307 308 308 308 307 306 306 306 306 307 307 307 306 305 305 304 303 302 302 302 302 302 302 302 302
346 345 345 344 344 344 344 344 343 342 341 340 338 337 337 336 334 331 330 329 329 329 327 325 322 320 319 318 317 316 314 312 312 311 311 310 308 307 307 307 306 306 306 308 308 308 308 308 308 309 309 308 308 309 308 307 307 306 305 305 307 307 306 306 306 306 307 307 307 307 307 307 306 305 304 303 303 303 303 302 302 302 302 302 302
346 345 344 344 343 343 343 343 342 342 341 340 338 337 336 335 332 331 329 329 329 328 326 323 321 320 319 318 317 316 314 312 311 310 310 309 307 305 305 305 305 305 305 306 306 306 306 307 307 309 309 308 308 309 308 308 307 306 305 306 306 305 305 306 306 307 307 306 306 306 307 306 305 305 304 303 303 303 303 303 302 302 302 302 302
346 345 344 343 343 343 343 343 342 342 341 339 338 337 335 333 331 330 329 328 328 326 324 322 321 319 318 317 316 315 314 312 311 310 309 307 305 303 303 304 304 304 304 304 305 305 305 305 305 306 308 308 307 307 308 308 307 305 305 304 303 303 304 305 306 306 305 305 306 307 306 305 305 304 303 304 303 304 303 303 302 302 301 302 302
346 345 344 343 343 343 343 343 342 341 340 338 337 336 334 332 331 329 328 327 326 325 324 322 320 319 318 317 316 316 314 312 311 309 307 306 304 302 303 303 303 302 302 302 303 304 304 304 303 304 306 308 307 306 307 306 306 305 303 300 300 302 304 304 304 305 305 305 307 306 305 305 304 303 303 304 303 303 303 302 302 302 301 302 302
345 345 344 343 343 343 342 342 341 341 339 337 335 335 334 332 330 329 328 327 326 326 325 322 320 318 317 316 316 315 313 312 310 308 306 305 304 304 304 303 301 302 303 300 299 301 301 301 301 301 302 305 306 306 306 305 305 304 301 298 298 301 303 303 303 304 305 306 307 306 304 304 304 303 303 304 304 304 303 302 302 302 302 302 302
Wind_Speed
15 18 18 19 19 18 17 16 16 17 18 16 14 15 16 13 13 17 16 12 13 10 7 5 6 11 12 11 9 12 15 13 13 13 10 10 9 9 8 7 6 5 5 5 4 5 6 8 9 9 9 9 9 9 9 8 9 9 11 12 13 14 14 14 14 13 14 15 16 16 15 15 15 16 15 15 14 14 14 14 14 14 15 14 15
16 17 19 19 18 18 18 17 16 16 18 17 14 15 16 14 14 15 13 11 11 9 7 5 7 10 9 11 10 10 13 14 15 13 11 10 8 7 5 5 6 4 5 6 6 7 8 9 10 9 9 9 10 9 9 9 9 9 10 12 12 13 13 13 13 12 13 14 14 14 13 13 13 14 14 14 14 14 14 14 14 14 15 14 14
17 18 19 18 17 17 16 16 16 15 15 14 13 14 14 13 13 12 10 11 11 8 9 6 8 9 10 13 11 10 12 14 15 14 12 9 6 5 5 6 6 6 6 6 8 9 9 10 9 10 9 9 10 10 10 10 10 10 10 11 11 11 10 10 10 11 11 12 11 11 12 12 13 13 13 14 14 14 14 14 14 14 14 14 14
17 18 18 17 17 17 16 14 14 15 13 12 13 13 13 12 12 10 11 12 7 7 11 7 8 9 11 13 13 13 11 12 14 15 13 9 5 4 5 7 7 7 6 7 9 9 9 10 9 9 9 9 9 9 10 10 11 11 11 12 11 9 7 7 8 9 9 10 10 10 11 11 13 14 13 14 14 14 14 14 14 15 14 14 14
17 19 17 17 17 17 17 14 14 15 13 12 13 13 12 11 11 9 10 9 2 8 10 7 8 9 10 12 14 15 12 12 13 13 13 11 8 6 6 7 8 8 7 8 10 9 10 9 9 9 9 9 8 8 8 8 8 9 10 10 9 7 6 6 6 7 8 9 9 9 10 11 12 14 14 14 14 14 14 14 14 15 15 14 14
18 19 18 17 17 16 17 15 14 14 13 13 12 12 13 9 9 8 8 7 4 8 8 8 10 10 11 12 15 16 13 13 12 11 12 13 12 10 8 6 9 9 7 9 10 10 10 9 9 8 8 8 7 7 6 6 5 5 5 6 5 5 5 5 6 6 7 7 9 10 10 10 12 13 14 15 15 14 14 14 15 15 15 14 14
18 20 19 17 17 16 16 15 14 14 13 14 12 12 13 10 7 8 10 8 5 6 6 8 9 10 11 12 15 17 14 11 12 10 11 15 14 12 9 8 11 9 6 7 9 10 10 10 9 8 8 7 7 7 6 5 4 3 2 2 3 3 4 5 5 6 6 7 8 10 10 10 12 13 14 15 15 15 15 15 15 15 15 14 14
18 21 20 17 17 16 16 15 14 15 14 13 13 12 12 11 8 11 14 9 6 7 6 8 9 10 11 12 13 14 12 11 13 11 10 13 14 12 10 12 14 11 6 6 7 10 11 10 9 8 8 7 6 6 5 5 4 3 2 1 1 2 3 4 5 6 6 7 8 10 10 11 12 13 14 15 15 15 15 15 15 14 14 14 14
19 21 20 17 16 16 15 15 14 15 14 13 14 12 11 11 7 10 16 9 7 8 8 9 9 11 11 12 13 12 10 10 11 9 8 11 11 9 9 11 12 9 6 6 7 9 10 10 9 8 9 8 7 6 5 5 4 3 2 1 1 2 3 4 5 6 7 7 9 10 11 12 13 13 14 15 15 14 14 14 14 14 14 14 14
20 21 21 17 15 16 15 16 16 15 16 14 14 13 12 9 8 9 12 8 7 9 10 11 11 12 12 11 12 10 9 10 9 8 6 8 8 6 8 10 8 7 10 10 10 8 8 10 11 10 9 8 9 7 6 6 5 4 2 1 1 2 3 4 5 6 7 8 10 10 12 13 13 14 14 14 14 14 14 13 13 13 13 14 14
21 21 20 18 15 16 16 17 17 16 15 15 14 14 12 8 9 10 10 6 8 9 12 12 12 12 11 10 9 8 10 10 8 8 8 9 8 7 9 10 8 10 13 13 12 10 8 8 10 11 8 8 8 6 6 7 6 5 3 2 1 2 3 4 5 6 7 9 10 11 13 13 13 13 13 13 13 13 13 13 13 13 13 14 14
22 21 20 19 16 16 16 17 18 16 15 15 13 13 13 9 8 9 12 10 10 12 13 13 13 12 9 9 8 8 9 9 9 9 9 10 10 10 9 8 10 12 12 12 12 11 9 6 7 10 8 6 6 5 4 5 5 5 3 2 1 2 3 4 5 6 7 9 11 12 13 13 12 13 12 13 12 12 12 12 12 13 13 13 14
22 21 19 18 17 16 16 17 17 16 15 16 14 13 13 11 9 10 13 12 14 15 15 15 14 11 8 7 7 8 7 7 11 11 9 11 11 12 10 10 11 13 12 12 11 10 9 7 5 11 12 7 4 4 4 4 5 5 2 1 2 2 2 4 5 6 8 9 11 12 12 12 12 12 12 12 12 12 12 12 13 13 13 13 14
23 22 20 18 18 17 18 18 16 15 15 15 14 14 13 11 12 14 13 12 15 16 16 16 13 11 10 6 3 6 8 9 12 12 10 12 13 12 12 12 12 13 13 13 12 10 10 8 7 13 16 10 5 5 5 5 6 5 2 2 4 4 3 5 6 7 9 10 11 11 11 11 11 11 11 11 11 12 11 12 12 12 13 13 13
24 23 21 19 19 18 18 19 17 16 16 15 14 15 14 13 13 16 15 14 14 16 19 17 13 13 11 5 3 4 7 11 15 15 13 11 13 13 13 13 12 13 14 13 13 11 12 11 8 12 14 9 6 6 7 7 6 6 3 3 5 5 5 7 8 9 10 10 10 10 10 10 11 11 11 11 11 11 11 12 12 12 13 13 13
24 23 21 20 20 19 18 19 18 17 17 16 15 16 16 15 14 15 17 16 14 16 21 19 16 16 10 4 6 5 4 9 15 18 17 13 13 15 14 13 12 15 16 12 13 12 12 13 10 12 13 9 6 6 8 10 8 7 5 5 7 6 6 9 10 11 11 10 9 10 10 10 10 10 10 11 11 11 11 12 12 12 12 12 13
24 24 22 20 20 20 19 18 19 18 17 17 15 16 16 15 15 16 18 19 16 14 18 21 19 18 14 5 5 4 3 8 12 13 16 16 15 15 14 14 12 15 15 11 12 13 11 13 13 13 14 12 10 7 7 9 9 8 7 7 8 6 7 10 11 11 11 10 9 9 9 10 10 10 10 10 11 11 11 11 11 11 12 12 12
24 24 23 21 21 21 20 19 19 19 18 17 16 16 16 15 15 16 17 18 17 14 17 22 20 19 18 11 6 4 1 9 9 5 11 15 15 16 15 14 12 13 14 11 12 14 12 13 14 15 14 12 11 8 6 8 9 10 9 9 8 8 9 11 11 11 10 9 8 8 8 9 9 10 10 10 11 10 11 11 11 11 11 12 12
25 24 23 22 21 21 21 19 18 19 19 18 16 16 17 17 16 17 17 17 18 19 20 22 20 18 19 17 12 7 3 6 4 2 5 9 13 16 16 15 14 14 14 13 13 14 15 13 14 15 13 10 10 9 8 9 11 11 11 11 10 11 11 13 12 10 10 8 7 7 7 8 8 9 9 10 10 10 11 11 10 11 11 12 12
26 25 24 23 22 21 21 20 19 18 19 18 17 17 17 17 17 17 17 17 18 20 21 22 20 18 18 17 14 10 7 7 6 2 3 4 7 12 15 16 16 16 15 14 14 14 16 15 13 13 13 11 10 10 10 12 14 14 14 13 12 12 13 14 12 10 9 8 6 5 6 7 7 8 9 10 10 10 10 10 10 11 11 12 12
26 26 24 24 23 22 21 22 21 19 19 19 17 17 18 17 18 18 17 17 17 18 19 20 20 18 16 16 13 11 10 9 10 8 5 4 4 5 11 14 14 18 18 16 14 14 16 18 15 12 13 14 12 11 11 12 15 16 14 13 12 11 12 13 11 10 9 7 6 5 5 5 5 7 9 9 10 10 10 10 10 10 11 12 12
27 26 25 24 24 23 21 21 23 21 19 19 18 17 18 18 18 19 18 17 17 17 18 18 17 16 15 14 13 11 10 9 11 11 8 7 5 4 11 14 11 16 21 19 17 14 14 18 18 14 13 15 14 12 11 13 15 15 14 13 11 10 12 12 10 9 9 8 6 5 5 5 5 7 9 10 10 10 10 10 10 10 11 11 11
29 28 27 26 24 24 22 21 23 22 20 19 19 18 18 19 18 18 19 19 17 18 18 17 14 14 15 14 14 14 13 11 10 11 10 7 5 4 10 17 15 16 20 22 21 16 14 16 19 17 14 14 15 13 13 16 17 16 15 13 11 11 13 11 9 9 9 8 6 5 5 5 5 7 9 10 10 10 10 10 10 10 10 10 10
30 30 29 28 26 26 25 22 22 23 23 21 19 19 18 19 19 19 19 18 18 18 18 18 16 16 17 15 15 15 14 13 12 12 12 11 9 5 6 13 14 15 19 21 20 18 16 14 16 16 14 13 13 13 16 18 18 16 15 13 12 14 14 11 8 9 10 9 6 6 6 6 6 8 9 10 10 10 10 10 9 9 9 9 11
30 31 31 30 28 27 27 25 23 24 24 23 20 20 19 19 19 19 20 19 19 19 18 18 18 18 18 17 17 16 14 13 14 14 12 12 10 7 7 9 8 8 16 20 18 17 17 16 16 15 14 13 12 13 16 17 16 15 14 14 14 15 14 10 8 10 11 9 7 6 6 7 7 8 9 9 9 9 9 9 9 9 9 10 12
30 31 31 31 29 29 28 27 25 23 24 24 22 20 20 20 20 19 20 20 20 19 19 18 18 18 18 18 17 18 16 14 15 15 14 12 9 8 7 10 9 5 15 18 18 16 16 18 18 15 14 15 14 13 15 15 14 13 13 15 15 14 12 8 8 11 12 10 8 7 7 8 8 8 9 8 8 9 9 9 9 9 10 11 13
29 30 31 31 29 29 29 28 27 24 24 25 24 22 21 21 21 20 20 20 20 20 20 19 19 19 19 18 19 19 18 16 16 16 16 14 12 12 10 7 7 3 10 14 16 17 18 18 18 16 15 15 15 14 14 13 12 12 13 14 15 14 11 8 9 10 11 9 8 8 8 8 8 7 8 8 8 9 9 9 9 9 11 12 13
29 29 30 31 30 30 29 29 28 26 25 26 26 24 22 22 22 21 21 21 21 21 21 20 19 18 18 18 18 18 16 16 17 17 17 16 13 12 11 9 6 2 4 7 10 15 19 18 16 16 16 15 16 14 13 12 12 13 13 13 14 14 11 9 10 10 9 8 9 10 9 8 8 7 7 8 8 9 9 9 9 10 11 13 14
30 30 30 31 31 30 30 29 29 28 26 27 28 26 24 24 23 23 22 22 21 21 20 19 18 17 16 16 16 17 16 16 16 16 16 16 15 13 13 13 11 6 3 4 5 9 16 18 17 17 16 16 17 15 13 13 14 14 14 12 11 12 11 10 11 11 9 9 10 11 9 8 7 6 7 8 8 9 9 10 10 11 12 13 14
30 30 30 31 31 31 31 30 30 29 28 27 28 27 25 25 24 23 24 22 20 19 19 19 17 16 16 16 16 17 17 16 15 17 17 17 18 17 17 18 16 10 6 3 3 5 12 17 18 18 18 17 18 16 14 14 14 14 15 13 10 12 14 13 12 12 11 9 10 11 10 8 7 6 7 8 9 10 10 11 12 12 13 14 15
31 31 30 30 31 31 31 31 30 30 29 28 28 28 26 26 25 24 23 22 21 20 19 18 17 17 18 19 19 19 19 18 17 19 20 21 21 20 21 19 15 9 5 2 1 2 5 14 15 15 20 19 17 17 14 13 13 13 15 13 10 12 15 16 15 14 14 11 9 10 9 8 7 7 8 9 10 10 11 12 12 13 14 15 16
32 32 31 31 31 31 31 31 30 30 30 28 29 28 27 26 26 25 23 22 22 20 19 18 18 18 20 22 23 21 20 21 21 22 22 22 21 20 18 15 12 8 5 3 2 3 3 12 14 12 19 19 15 14 12 12 12 13 14 12 11 12 14 16 17 15 15 13 10 9 9 9 9 9 10 10 11 12 12 12 12 13 14 15 16
33 32 32 32 31 31 31 31 30 30 30 30 29 30 28 27 27 27 24 22 22 21 19 20 20 20 20 22 24 23 22 24 23 20 20 18 17 16 14 11 11 11 9 6 5 3 5 11 13 13 18 18 14 11 11 14 15 13 11 9 11 14 13 13 15 15 14 13 11 10 10 10 10 11 11 11 12 13 14 14 13 14 15 16 17
34 33 32 32 32 32 32 32 30 30 30 30 30 31 30 28 27 27 26 24 23 22 21 21 21 21 21 21 22 22 22 23 21 16 15 14 14 14 14 13 12 13 13 10 8 6 8 11 11 15 18 16 13 11 12 14 13 10 8 7 10 14 13 11 13 13 13 12 12 12 12 12 12 13 13 13 14 16 16 16 17 17 18 19 19
34 34 33 32 33 33 33 33 32 31 31 31 31 31 31 30 29 28 27 26 25 24 22 22 22 22 22 21 22 21 19 19 20 17 14 15 15 15 16 16 15 14 14 14 12 11 13 13 12 14 15 13 11 11 12 13 11 9 9 9 12 14 12 10 12 13 13 14 13 13 13 14 15 16 16 16 17 19 19 19 20 20 20 22 22
34 35 34 33 33 33 34 35 33 32 32 31 31 31 31 30 30 29 28 27 26 25 24 24 23 22 22 22 22 22 20 19 19 18 17 17 18 17 17 17 17 14 13 14 15 13 15 16 12 12 14 12 10 11 12 13 13 12 11 10 10 12 11 11 12 13 14 14 14 15 14 14 16 17 17 17 20 21 21 21 22 22 22 22 22
35 35 35 34 34 34 35 35 34 33 33 32 31 31 31 31 31 29 28 27 26 26 26 25 23 22 21 22 22 22 22 21 21 20 19 18 18 18 17 17 17 15 13 13 14 13 15 17 14 12 14 14 11 9 10 12 13 14 13 12 11 11 11 11 11 12 14 15 15 16 14 14 17 17 18 20 22 22 23 24 23 21 21 20 18
35 35 35 34 34 35 34 34 34 33 32 32 31 32 31 31 31 29 29 29 27 25 26 24 23 22 21 21 22 22 23 23 23 22 21 19 19 18 18 17 16 16 15 13 13 14 14 15 15 13 13 14 11 10 11 10 11 12 11 11 12 12 11 12 12 11 13 14 15 14 13 15 16 17 19 21 22 23 25 25 23 21 21 18 15
36 36 35 34 34 35 34 33 34 34 33 33 32 32 33 31 32 31 29 30 29 25 25 24 23 22 21 22 22 23 23 23 23 23 22 21 20 19 18 18 16 17 18 15 13 14 13 12 14 14 13 12 11 11 10 9 9 9 8 8 9 10 10 11 11 10 10 12 14 15 14 15 15 17 19 20 21 23 23 23 22 21 20 17 16
37 38 37 34 33 34 34 34 37 36 34 35 34 34 34 33 32 32 30 30 29 27 25 24 23 22 22 22 23 23 23 23 23 23 23 23 22 20 19 19 17 19 20 17 14 14 14 13 13 14 13 12 12 11 9 8 9 7 9 10 8 7 7 8 8 9 11 14 15 14 13 13 15 18 19 19 21 21 21 22 22 20 18 17 20
38 38 36 35 33 33 34 35 37 36 34 36 36 35 35 35 33 32 32 31 30 28 27 25 23 21 21 22 23 23 23 23 23 23 23 24 24 22 21 20 19 19 20 18 16 15 15 14 13 14 14 13 14 14 10 9 8 7 8 9 7 6 7 9 10 10 12 12 10 9 10 13 17 18 18 19 19 19 21 21 20 20 21 22 25
39 38 36 35 34 34 35 35 36 36 36 36 38 38 37 36 33 32 32 31 30 29 27 25 23 21 22 23 22 22 22 22 22 22 22 23 23 22 22 21 20 19 19 18 17 16 16 15 13 13 14 14 15 15 14 11 10 8 5 5 5 7 7 9 9 9 9 7 7 9 13 15 17 18 18 17 17 19 20 20 21 23 24 26 27
37 38 37 36 36 36 36 35 35 36 37 37 38 40 40 37 35 33 32 32 31 30 28 26 24 22 22 22 22 22 22 23 23 23 23 24 23 22 22 22 20 19 19 17 17 17 15 14 14 14 14 14 14 14 15 13 12 10 6 4 5 6 6 8 9 8 7 8 11 15 17 15 15 17 17 15 17 19 20 21 23 25 26 26 26
37 38 38 38 37 36 35 35 36 36 36 36 38 40 41 40 38 35 33 32 31 31 30 27 24 23 23 22 22 22 24 25 25 25 25 25 24 22 22 22 20 19 19 17 17 17 15 14 15 15 14 12 12 14 14 12 11 9 8 8 7 7 9 9 8 8 9 11 14 17 17 15 14 16 15 15 17 20 22 23 25 25 25 25 25
38 38 39 39 37 36 35 36 37 37 36 36 38 41 42 42 41 37 33 32 33 31 29 28 25 24 24 23 22 23 25 26 27 27 27 26 25 22 21 21 20 20 20 17 15 15 14 13 12 12 12 11 10 13 14 11 10 9 7 7 7 7 8 6 7 10 12 13 15 17 18 16 15 15 15 17 18 21 23 24 25 24 24 25 28
37 37 38 39 38 37 36 36 36 36 36 36 38 41 43 43 42 39 34 32 33 32 29 28 27 25 25 25 23 24 26 28 28 29 29 28 26 23 22 21 21 20 19 16 15 13 13 12 10 8 10 11 8 9 13 13 11 10 6 5 6 6 6 6 8 12 13 13 16 17 17 16 14 14 17 19 20 23 24 24 24 23 24 28 30
39 40 40 40 40 38 36 37 36 35 36 38 39 41 44 45 44 40 34 32 33 31 29 29 29 28 27 27 25 25 27 28 30 30 30 29 28 24 22 21 20 20 18 16 16 16 13 13 12 9 9 11 9 8 12 13 11 10 8 7 7 6 7 8 11 13 12 11 12 12 11 11 12 14 18 20 21 23 23 22 22 23 26 29 29
39 39 39 39 39 38 36 37 36 35 36 39 40 42 44 46 46 41 34 31 32 30 28 29 29 28 28 28 26 26 27 28 30 30 29 29 28 25 23 21 19 20 19 16 16 19 17 15 15 12 10 12 11 9 10 11 10 10 9 7 6 6 9 11 12 13 11 10 10 7 7 9 11 14 19 22 22 23 21 19 20 23 28 28 26
37 38 39 39 40 39 37 36 36 36 35 37 41 43 45 47 47 40 33 31 32 30 28 29 28 28 28 29 28 27 27 28 29 30 28 27 27 25 23 22 20 20 20 19 17 18 18 17 17 15 11 12 13 11 11 11 11 10 9 7 6 6 8 9 9 10 10 11 9 6 6 9 10 14 19 22 23 21 17 17 20 25 29 29 26
38 40 40 40 40 39 38 37 37 36 34 36 41 44 46 49 48 41 34 32 31 30 28 28 28 27 28 29 29 27 27 28 29 29 28 26 26 26 24 24 23 20 20 21 20 19 19 19 18 17 15 14 13 13 13 13 13 12 11 10 8 7 7 8 8 10 11 9 5 5 8 9 12 16 18 20 23 21 16 14 20 27 30 28 26
38 39 40 38 37 38 38 38 38 36 34 36 41 45 47 50 50 42 35 33 32 31 29 28 27 26 27 28 29 27 26 27 28 29 30 27 26 26 26 25 25 22 20 22 22 22 22 22 21 20 19 17 15 15 15 15 15 15 14 13 11 10 8 9 10 9 8 4 1 6 10 11 13 18 18 16 15 17 16 16 22 29 29 26 28
Wind_Direction
197 194 203 206 208 211 210 212 214 211 216 217 206 206 211 217 223 222 224 229 243 238 187 191 176 143 140 149 150 144 147 156 146 132 133 132 130 132 132 139 144 136 129 131 126 123 120 117 118 115 112 107 98 90 87 88 86 84 85 84 81 77 72 65 58 51 46 43 40 36 32 30 27 25 22 19 16 15 13 12 13 12 11 11 11
201 197 206 211 210 212 210 209 212 213 214 213 208 212 211 216 227 229 225 223 245 232 180 183 160 144 145 148 154 155 145 146 144 138 140 141 143 146 151 171 172 162 145 141 137 134 131 130 127 121 116 108 102 95 90 91 89 88 87 82 76 70 64 56 50 43 38 35 32 28 23 19 16 12 11 10 10 9 8 6 6 6 6 5 4
202 198 207 211 209 211 211 209 209 209 212 208 206 215 214 216 223 225 222 227 243 214 165 152 144 141 141 142 151 159 150 148 147 145 150 151 147 149 168 187 185 175 160 151 146 141 137 136 131 124 118 110 105 99 94 91 88 86 83 78 70 63 56 46 38 30 27 24 19 17 14 11 9 5 1 360 360 360 1 1 360 359 360 0 359
201 197 205 207 206 210 210 211 207 205 213 205 204 216 211 211 220 219 221 236 245 168 158 154 144 143 144 145 151 154 153 157 153 151 158 164 160 162 168 175 181 174 162 154 149 147 144 140 135 128 118 112 105 97 92 86 82 78 73 70 65 58 50 35 25 19 16 12 8 7 8 7 5 3 0 358 356 354 354 354 354 353 352 352 352
202 197 201 203 203 206 206 209 207 206 211 203 207 215 204 208 221 219 222 234 191 137 158 151 147 153 151 153 155 153 158 165 162 161 169 179 192 189 166 168 175 167 158 157 157 154 149 144 137 130 120 115 108 98 92 84 77 70 64 61 58 50 38 27 19 14 13 10 9 5 2 2 1 0 359 357 355 354 353 351 350 349 348 347 346
202 199 199 201 202 203 202 205 205 204 205 203 207 206 199 209 216 212 223 219 130 132 155 144 149 162 160 160 159 157 162 170 175 174 176 189 202 190 166 167 168 161 156 158 164 161 154 150 142 135 129 123 115 108 103 100 90 76 67 59 56 48 38 31 20 12 7 6 8 4 359 356 356 357 357 355 354 352 351 350 349 347 346 345 342
200 199 197 200 202 200 200 202 202 200 200 202 202 196 198 206 200 202 219 212 173 164 165 157 161 167 171 167 160 161 165 177 181 176 184 192 191 182 177 179 170 165 161 157 165 167 161 157 153 148 141 131 126 122 118 120 114 105 92 66 55 42 35 28 15 11 3 357 1 1 358 353 352 352 352 352 351 349 348 347 347 346 344 343 341
197 197 195 199 199 197 199 199 201 198 196 201 202 195 198 200 184 198 216 215 204 200 178 172 170 165 170 166 162 166 168 179 183 179 185 177 166 166 173 173 169 166 161 158 166 170 169 172 173 163 149 141 142 141 137 140 139 138 128 89 61 26 18 11 0 360 358 352 353 356 356 351 348 347 347 348 348 347 346 345 345 345 343 342 340
195 195 193 197 197 196 197 197 201 197 193 201 204 200 201 199 164 194 220 222 213 207 179 177 177 166 166 164 165 166 167 175 183 187 178 158 152 159 169 168 166 165 174 186 186 181 182 187 185 171 164 159 152 153 156 158 164 166 157 123 70 26 7 359 354 350 351 349 347 350 351 349 346 343 344 346 347 347 346 346 346 345 345 343 341
194 193 193 197 196 197 199 199 200 198 198 202 205 206 210 197 136 171 217 221 213 203 176 176 173 167 168 163 164 167 178 183 185 195 183 162 161 166 184 186 180 180 187 194 200 202 201 197 193 188 189 182 166 161 168 174 173 175 188 173 40 13 2 352 349 344 345 348 347 346 345 345 344 342 343 345 347 348 347 348 347 346 346 344 342
192 192 196 198 198 202 204 201 199 199 203 207 208 209 214 193 145 176 210 210 215 194 168 172 165 164 166 156 161 175 185 189 190 195 186 174 172 175 194 197 191 188 187 193 206 215 213 204 203 201 199 197 192 186 186 190 178 175 194 196 272 344 1 350 345 341 340 344 343 342 341 342 343 342 345 347 348 349 349 350 349 347 346 344 343
190 193 199 201 201 208 207 201 200 200 202 207 208 208 215 199 155 194 206 185 193 182 162 164 159 157 160 155 166 182 184 194 205 203 187 178 179 186 196 195 187 186 189 196 203 213 217 213 203 196 194 191 195 200 194 199 192 186 193 203 264 327 356 345 343 340 336 338 338 338 339 341 342 344 346 348 349 350 350 350 349 347 346 346 345
192 194 201 203 203 209 207 201 203 205 203 205 204 205 215 201 162 190 205 176 169 178 167 155 151 146 148 160 175 184 192 204 215 221 209 192 192 198 196 192 188 187 192 196 197 205 211 219 208 195 200 203 197 196 181 182 191 185 174 261 302 332 354 337 335 335 331 332 334 336 339 340 342 345 348 348 349 350 350 349 349 349 347 347 347
194 195 200 204 204 208 209 206 205 206 207 205 201 204 207 195 172 175 194 184 167 179 176 155 152 152 148 152 168 199 217 225 228 235 224 194 188 198 197 192 192 191 193 194 195 200 204 218 226 206 208 220 232 221 201 191 192 190 197 325 312 318 334 332 329 329 329 329 333 336 339 341 343 346 348 348 349 348 347 347 348 348 347 347 347
195 195 200 204 205 207 212 212 206 202 207 204 200 208 202 190 181 166 174 191 181 181 180 168 167 163 154 162 173 194 222 228 231 231 226 204 188 194 197 196 198 194 194 196 197 204 208 211 215 206 210 224 241 245 230 211 205 208 231 305 301 301 316 328 329 326 328 330 332 336 338 341 343 345 346 346 347 345 343 345 346 346 346 346 345
194 196 199 204 207 206 208 211 207 202 207 205 200 208 207 197 193 174 165 180 187 182 180 180 180 168 165 199 180 180 222 214 216 218 220 218 205 201 198 199 205 197 193 198 202 206 211 208 202 200 205 208 216 241 239 222 214 211 219 279 287 291 312 324 327 326 330 330 330 336 338 340 342 343 344 344 343 341 340 343 343 343 344 343 343
194 196 199 204 208 207 206 208 208 206 205 207 203 205 211 208 203 189 171 171 183 192 188 189 195 187 184 187 166 196 249 178 185 210 215 213 212 209 202 201 206 199 192 196 207 207 207 206 200 202 210 211 209 219 230 226 219 214 223 258 272 283 311 319 322 326 332 330 329 336 337 338 341 340 341 341 338 337 338 340 341 341 342 341 340
196 198 199 203 208 207 205 206 209 209 206 206 207 206 209 209 203 198 186 175 179 200 205 199 205 206 201 206 217 242 199 155 162 192 204 208 214 210 206 205 207 203 195 196 211 211 203 202 201 206 217 220 217 212 223 233 218 216 236 251 264 282 304 314 318 328 333 328 328 334 334 336 337 336 337 336 333 332 333 336 339 339 339 338 338
198 199 200 203 206 207 205 205 207 210 208 205 208 209 206 203 200 197 194 185 178 189 201 200 206 214 214 222 235 241 208 176 184 140 172 209 221 210 204 205 207 208 206 205 217 214 201 201 207 210 219 226 220 210 219 233 215 214 242 257 274 290 302 311 319 332 333 325 326 326 329 331 331 333 333 330 327 327 330 334 336 336 336 336 335
200 201 202 203 205 208 207 207 207 209 210 208 209 212 206 201 200 197 195 194 186 184 189 193 200 208 214 222 229 230 225 228 250 241 163 196 217 209 204 205 208 212 216 214 220 221 203 199 209 210 215 225 223 208 213 233 229 226 241 253 270 284 295 310 323 335 333 325 323 320 323 323 325 330 328 325 322 321 326 332 333 333 333 332 333
202 201 203 204 205 206 207 209 208 208 210 210 210 212 209 202 201 199 196 196 196 191 187 192 198 200 204 212 219 223 224 235 242 233 224 214 200 195 192 197 209 215 220 218 218 226 213 204 208 210 214 219 216 210 213 229 233 230 237 248 258 274 294 311 325 335 330 324 322 316 314 312 318 328 324 319 317 318 326 331 332 331 329 331 334
201 202 203 205 205 205 205 209 209 208 210 210 209 211 212 208 203 203 199 195 198 198 196 198 201 203 203 203 206 212 218 231 230 220 226 233 226 207 185 185 203 213 218 219 216 222 221 210 206 208 218 217 207 206 215 224 229 232 240 248 256 279 301 313 327 333 326 323 323 314 309 310 320 325 318 312 312 319 329 331 330 328 328 332 336
200 201 202 204 205 204 204 208 209 208 208 209 210 211 213 210 204 205 202 197 199 201 203 205 205 207 209 207 205 210 214 220 225 218 219 231 237 223 192 190 201 210 212 215 215 218 221 212 207 209 221 221 205 203 218 223 228 235 241 246 261 287 301 310 326 333 325 322 320 310 307 312 321 319 310 310 316 324 330 330 328 327 329 333 335
198 200 201 203 204 205 205 207 209 208 207 207 209 210 213 211 204 203 202 201 202 202 202 204 207 209 212 213 212 220 225 220 224 225 222 229 234 251 229 204 205 207 203 203 208 215 216 208 210 213 216 220 211 208 219 222 225 231 238 248 265 284 295 304 323 332 327 323 315 306 308 313 317 315 310 313 321 325 326 326 326 326 328 332 334
197 199 201 202 204 205 205 206 208 209 207 206 208 209 211 210 204 202 202 201 203 206 205 204 208 212 215 217 215 223 231 224 226 230 230 233 229 250 270 250 237 191 176 185 195 207 214 210 212 211 207 215 217 213 216 216 220 230 244 256 264 278 288 298 317 327 328 324 311 304 306 310 314 313 313 316 319 320 321 321 322 325 329 332 334
198 199 201 202 204 205 205 206 208 209 207 206 206 208 209 209 205 202 203 203 206 211 211 209 211 213 215 220 222 225 227 225 229 231 237 243 233 235 256 272 277 166 154 178 190 197 207 208 209 207 206 214 214 213 214 215 226 240 253 260 267 279 287 294 310 320 325 322 311 308 309 310 312 312 312 313 314 315 317 318 320 324 328 331 331
200 200 201 203 205 205 206 208 208 208 207 205 205 206 207 209 207 204 204 205 206 210 212 213 216 219 221 225 229 230 227 227 230 229 234 241 239 233 231 257 281 187 163 182 188 195 201 198 201 204 208 210 206 209 214 219 232 242 251 262 274 283 282 286 299 311 321 325 321 316 312 311 311 310 309 309 310 313 315 317 320 322 325 327 328
200 201 202 204 205 204 205 207 207 207 206 204 204 203 205 208 207 205 205 205 207 211 214 216 222 226 229 231 232 232 230 229 230 228 230 237 241 241 234 233 246 233 194 191 191 199 192 181 186 198 205 202 196 207 217 222 235 241 247 263 275 281 277 276 291 303 315 333 340 329 320 316 311 307 307 307 309 313 317 317 317 318 320 322 325
200 201 202 204 206 205 204 205 206 206 204 203 202 201 203 205 205 204 205 206 210 215 216 217 220 223 227 232 230 229 228 229 228 226 229 235 238 241 242 238 237 233 222 228 227 202 182 175 178 186 196 196 191 206 220 225 237 245 250 261 271 275 273 271 282 293 300 321 339 335 326 318 311 308 307 308 312 316 317 316 315 315 316 319 321
200 200 202 204 205 206 206 205 205 204 203 202 201 200 200 201 201 204 207 208 208 211 211 210 213 219 224 227 226 225 228 230 230 227 229 232 233 235 238 240 243 239 230 241 249 214 188 180 175 177 187 189 190 203 215 222 236 246 250 257 265 267 269 269 275 286 290 302 325 331 327 317 312 311 308 310 313 314 316 315 314 313 312 314 317
199 200 201 202 205 206 207 206 204 203 203 201 199 198 198 199 199 200 205 207 205 204 206 207 214 220 222 223 222 222 225 229 231 231 230 230 227 229 232 237 246 244 246 274 266 287 198 172 166 177 185 183 187 199 211 223 235 240 240 250 262 258 261 265 270 279 281 283 301 319 322 315 310 309 307 311 311 310 313 313 314 315 314 314 314
197 199 200 202 205 207 207 207 204 203 202 201 199 197 196 197 197 196 198 202 202 203 206 210 217 219 218 218 217 218 220 224 229 230 229 226 223 223 225 233 241 236 251 265 194 30 80 157 158 166 177 177 180 193 209 218 224 230 234 254 269 252 252 264 271 277 274 270 280 304 317 313 307 308 306 305 307 307 308 309 311 315 318 319 319
197 198 200 202 206 207 207 208 206 203 202 202 199 197 195 194 195 194 195 198 201 204 207 211 217 220 219 217 213 214 217 221 226 226 219 217 219 221 220 225 234 232 237 235 195 111 102 155 158 153 165 174 179 189 206 211 217 227 236 258 260 243 246 263 272 274 268 262 269 290 311 314 306 306 304 302 306 308 306 304 304 307 315 321 320
197 197 199 202 205 207 206 207 208 205 204 203 200 196 193 192 192 192 195 199 202 205 207 210 216 220 223 224 220 218 218 220 226 229 219 218 223 224 221 219 223 226 224 216 203 176 146 156 159 157 168 182 192 200 209 211 213 221 234 256 248 240 247 258 264 271 271 267 271 284 302 310 307 306 305 306 308 311 310 305 302 303 309 313 313
196 197 199 204 207 206 204 205 208 207 205 204 201 196 193 192 191 191 195 200 202 205 208 210 214 217 220 227 229 229 228 224 227 231 227 224 223 218 217 217 216 221 216 205 209 199 170 165 171 172 181 199 211 212 211 209 205 210 234 252 248 240 242 250 256 265 270 267 268 279 293 304 308 309 311 312 313 315 314 308 305 303 302 307 310
195 196 200 207 209 206 203 204 207 208 206 204 201 196 193 192 191 192 196 199 201 204 206 208 213 216 217 221 225 229 232 226 220 219 217 217 215 210 211 215 215 217 209 201 210 201 170 167 179 190 198 207 213 212 209 208 212 226 238 242 244 242 241 249 255 260 267 265 266 279 291 299 304 307 310 312 312 313 312 309 308 302 300 308 310
195 197 201 208 210 205 203 204 205 207 206 203 199 197 195 193 192 194 197 200 201 204 206 208 212 215 217 218 219 223 222 214 207 208 210 211 208 205 209 212 210 210 204 197 201 189 169 171 185 198 198 192 197 211 213 210 211 221 231 233 234 237 242 253 254 257 268 271 271 278 285 292 300 307 311 311 309 307 305 307 306 300 301 309 310
195 196 201 208 209 206 205 204 204 207 206 201 199 198 197 195 194 196 198 199 201 203 204 207 212 216 219 218 216 217 214 205 200 203 208 207 202 202 207 207 202 200 194 184 177 172 171 178 186 191 186 177 184 202 214 223 216 212 227 238 234 230 240 252 250 252 264 273 277 277 280 290 301 310 312 312 310 305 303 304 303 300 303 305 306
195 196 200 206 207 205 206 205 206 209 207 202 200 200 198 197 196 197 198 198 200 203 204 208 213 216 219 217 213 214 212 204 201 203 205 203 200 202 203 199 196 193 188 181 175 175 181 186 184 182 178 177 187 200 214 228 221 215 233 252 250 245 249 255 253 252 263 272 275 272 276 288 299 306 308 308 307 306 308 309 306 305 305 302 307
197 197 200 204 204 203 205 206 207 210 207 202 201 200 198 198 197 197 198 196 196 200 203 207 212 213 215 215 211 212 211 206 203 204 204 201 199 200 199 196 195 190 186 186 187 188 194 198 189 180 180 186 196 206 217 208 201 225 245 243 253 268 271 275 276 273 278 280 272 263 271 289 298 302 304 305 307 311 316 317 315 316 316 311 316
198 198 200 202 202 203 206 208 207 208 207 203 201 200 197 196 197 197 197 194 193 196 200 204 208 210 212 212 210 210 211 207 204 205 205 202 199 198 195 195 194 188 186 189 193 193 196 200 192 180 182 191 196 202 208 202 210 247 242 221 236 268 274 278 283 283 285 285 276 267 283 297 299 299 300 302 311 318 320 320 323 326 327 322 321
198 199 200 200 202 204 207 209 207 207 208 206 203 201 197 195 197 197 196 194 193 195 197 198 201 205 209 210 208 209 210 205 202 204 203 200 199 197 196 196 195 188 185 189 195 195 195 197 193 185 188 193 193 197 204 211 224 232 207 195 239 264 272 277 283 289 289 289 302 304 302 302 298 294 295 302 315 323 324 326 328 328 327 323 322
197 198 198 198 202 205 207 208 208 207 208 207 204 202 199 197 196 195 194 193 194 196 195 192 194 200 206 206 205 207 207 201 199 200 199 197 197 197 197 198 197 192 189 191 195 197 197 197 195 197 199 193 191 198 204 209 214 214 209 227 252 264 277 281 284 290 290 298 313 310 306 308 302 291 294 309 321 327 331 331 330 328 325 324 328
195 196 197 198 201 205 207 208 208 209 210 208 204 200 198 197 196 194 193 191 191 195 195 191 191 197 201 202 203 205 204 200 197 197 196 195 195 196 197 198 197 195 195 196 196 198 201 197 196 204 203 190 194 203 199 197 203 205 212 226 235 252 260 264 277 286 286 293 301 299 299 307 308 299 304 320 328 332 334 332 330 329 327 331 338
195 195 196 198 200 204 207 207 208 210 211 210 206 200 196 195 195 193 192 191 191 193 193 188 187 193 197 198 199 200 200 199 198 196 196 195 194 195 193 194 195 194 196 199 198 200 204 201 198 201 196 192 205 205 193 192 198 192 197 220 236 253 259 267 287 286 285 289 289 287 290 299 307 311 318 327 332 335 335 332 331 332 334 339 337
194 195 197 198 199 203 206 207 208 209 211 211 207 201 198 196 195 192 190 191 193 194 193 187 185 190 195 196 195 194 194 197 197 197 197 196 194 194 191 191 193 194 195 198 197 195 199 200 195 187 187 196 205 193 186 191 194 188 192 223 241 259 273 279 280 282 289 296 289 279 278 291 308 319 324 329 335 335 334 334 334 337 339 337 332
194 195 197 198 199 202 205 206 207 208 211 211 207 201 199 197 194 190 189 192 194 194 193 189 187 189 193 195 196 193 192 196 197 197 198 197 196 196 193 191 194 196 200 202 199 196 196 196 194 184 179 187 187 178 183 190 195 197 206 226 244 266 278 276 281 288 297 308 299 276 272 296 319 327 327 332 335 332 332 336 338 339 338 334 334
195 196 197 198 199 201 204 205 205 207 210 211 206 201 199 196 192 190 190 193 193 191 189 188 188 188 191 194 197 194 193 196 197 198 199 199 197 196 194 192 193 198 203 205 202 201 201 201 200 195 184 182 185 190 194 198 204 204 205 220 241 265 271 271 281 289 297 317 318 299 303 324 336 337 333 332 329 324 326 335 339 339 336 332 335
194 195 196 197 198 200 202 203 203 205 209 209 204 200 198 195 191 189 190 190 188 187 186 187 188 188 191 195 195 195 195 196 197 199 199 198 197 195 193 191 193 197 202 205 206 207 207 208 208 206 201 191 192 199 202 203 206 204 203 211 224 256 273 275 284 297 309 320 318 321 340 336 338 342 334 325 320 315 318 329 340 344 338 330 334
194 195 195 196 198 198 201 202 202 204 208 205 199 197 197 195 192 190 190 188 184 183 184 186 188 189 191 195 196 195 195 195 196 197 197 196 194 191 190 190 191 194 199 203 209 214 215 215 215 214 211 204 202 206 209 212 216 221 230 235 233 251 280 288 293 306 315 310 301 345 353 340 340 341 328 317 315 312 312 328 343 346 340 333 338
194 196 195 195 196 197 200 202 202 203 206 202 196 196 198 197 194 191 189 186 183 183 183 182 185 190 192 194 196 196 195 194 195 195 195 194 191 190 191 189 187 190 197 204 211 218 219 218 219 219 217 215 214 216 219 224 228 235 246 246 235 235 255 277 288 300 309 293 283 356 348 340 339 330 317 308 309 311 320 338 347 345 340 338 341